Sheldon, IA

3:45 AM CDT on April 28, 2017 (GMT -0500)
Sheldon Municipal

Weather History for KSHL - September, 2014

Change the Weather History Date:

Wednesday, September 10, 2014

  Actual Average Record
Temperature  
Mean Temperature 57 °F -  
Max Temperature 64 °F 77 °F 90 °F (1981)
Min Temperature 50 °F 50 °F 35 °F (1959)
Degree Days  
Heating Degree Days 8    
Growing Degree Days 7 (Base 50)    
Moisture  
Dew Point 54 °F    
Average Humidity 93    
Maximum Humidity 100    
Minimum Humidity 82    
Precipitation  
Precipitation 0.00 in - - ()
Sea Level Pressure  
Sea Level Pressure 29.88 in    
Wind  
Wind Speed 11 mph (North)    
Max Wind Speed 20 mph    
Max Gust Speed 29 mph    
Visibility 9 miles    
Events      
Averages and records for this station are not official NWS values.
T = Trace of Precipitation, MM = Missing Value Source: NWS Daily Summary

Daily Weather History Graph

Daily Weather History Graph

Search for Another Location

Airport or City:

Trip Planner

Search our weather history database for the weather conditions in past years. The results will help you decide how hot, cold, wet, or windy it might be!

Date:

Astronomy

Sep. 10, 2014 Rise Set
Actual Time 6:57 AM CDT 7:42 PM CDT
Civil Twilight 6:28 AM CDT 8:11 PM CDT
Nautical Twilight 5:54 AM CDT 8:45 PM CDT
Astronomical Twilight 5:18 AM CDT 9:20 PM CDT
Moon 8:36 PM CDT (9/10) 8:50 AM CDT (9/10)
Length of Visible Light 13h 42m
Length of Day
12h 44m
Waning Gibbous, 96% of the Moon is Illuminated
Sep 10
Waning Gibbous
Sep 15
Last Quarter
Sep 24
New
Oct 1
First Quarter
Oct 8
Full

Hourly Weather History & Observations

Time (CDT) Temp. Dew Point Humidity Pressure Visibility Wind Dir Wind Speed Gust Speed Precip Events Conditions
12:15 AM 64.4 °F 64.4 °F 100% 29.68 in 10.0 mi NNE 4.6 mph - N/A   Overcast
12:35 AM 64.4 °F 64.4 °F 100% 29.67 in 10.0 mi NNE 4.6 mph - N/A   Overcast
12:55 AM 64.4 °F 64.4 °F 100% 29.68 in 9.0 mi NNE 4.6 mph - N/A   Overcast
1:15 AM 64.4 °F 64.4 °F 100% 29.66 in 2.0 mi NNE 6.9 mph - N/A   Overcast
1:35 AM 64.4 °F 64.4 °F 100% 29.65 in 1.8 mi North 5.8 mph - N/A   Overcast
1:55 AM 62.6 °F 62.6 °F 100% 29.67 in 10.0 mi North 8.1 mph - N/A   Overcast
2:15 AM 62.6 °F 62.6 °F 100% 29.67 in 10.0 mi North 9.2 mph - N/A   Overcast
2:35 AM 62.6 °F 62.6 °F 100% 29.67 in 10.0 mi North 9.2 mph 15.0 mph N/A   Overcast
2:55 AM 62.6 °F 62.6 °F 100% 29.67 in 10.0 mi North 9.2 mph - N/A   Overcast
3:15 AM 62.6 °F 60.8 °F 94% 29.67 in 10.0 mi NNE 12.7 mph 20.7 mph N/A   Overcast
3:35 AM 60.8 °F 60.8 °F 100% 29.67 in 10.0 mi North 13.8 mph 24.2 mph N/A   Overcast
3:55 AM 59.0 °F 59.0 °F 100% 29.67 in 9.0 mi North 15.0 mph - N/A   Overcast
4:15 AM 59.0 °F 59.0 °F 100% 29.68 in 5.0 mi North 13.8 mph - N/A   Overcast
4:35 AM 59.0 °F 59.0 °F 100% 29.68 in 8.0 mi North 10.4 mph 19.6 mph N/A   Overcast
4:55 AM 59.0 °F 59.0 °F 100% 29.69 in 10.0 mi North 17.3 mph - N/A   Overcast
5:15 AM 59.0 °F 57.2 °F 94% 29.69 in 10.0 mi North 15.0 mph 21.9 mph N/A   Overcast
5:35 AM 57.2 °F 57.2 °F 100% 29.70 in 10.0 mi North 16.1 mph 24.2 mph N/A   Overcast
5:55 AM 57.2 °F 57.2 °F 100% 29.71 in 10.0 mi North 12.7 mph - N/A   Overcast
6:15 AM 55.4 °F 55.4 °F 100% 29.72 in 10.0 mi North 13.8 mph 21.9 mph N/A   Overcast
6:35 AM 55.4 °F 55.4 °F 100% 29.73 in 10.0 mi North 15.0 mph - N/A   Overcast
6:55 AM 55.4 °F 55.4 °F 100% 29.74 in 10.0 mi North 11.5 mph 19.6 mph N/A   Overcast
7:15 AM 57.2 °F 55.4 °F 94% 29.75 in 10.0 mi North 15.0 mph 21.9 mph N/A   Overcast
7:35 AM 57.2 °F 55.4 °F 94% 29.77 in 10.0 mi North 11.5 mph 23.0 mph N/A   Overcast
7:55 AM 57.2 °F 55.4 °F 94% 29.78 in 10.0 mi North 13.8 mph 24.2 mph N/A   Overcast
8:15 AM 55.4 °F 55.4 °F 100% 29.78 in 4.0 mi NNW 18.4 mph 26.5 mph N/A   Overcast
8:35 AM 55.4 °F 53.6 °F 94% 29.80 in 10.0 mi NNW 15.0 mph 27.6 mph N/A   Overcast
8:55 AM 55.4 °F 53.6 °F 94% 29.81 in 10.0 mi NNW 17.3 mph 27.6 mph N/A   Overcast
9:15 AM 55.4 °F 53.6 °F 94% 29.81 in 8.0 mi NNW 18.4 mph 27.6 mph N/A   Overcast
9:35 AM 55.4 °F 53.6 °F 94% 29.83 in 10.0 mi NNW 16.1 mph 24.2 mph N/A   Overcast
9:55 AM 55.4 °F 51.8 °F 88% 29.84 in 10.0 mi NNW 17.3 mph 27.6 mph N/A   Overcast
10:35 AM 55.4 °F 51.8 °F 88% 29.86 in 9.0 mi North 19.6 mph 27.6 mph N/A   Mostly Cloudy
10:55 AM 55.4 °F 51.8 °F 88% 29.86 in 9.0 mi North 19.6 mph 28.8 mph N/A   Overcast
11:15 AM 55.4 °F 51.8 °F 88% 29.88 in 9.0 mi NNW 17.3 mph 25.3 mph N/A   Overcast
11:35 AM 55.4 °F 51.8 °F 88% 29.89 in 10.0 mi North 19.6 mph 26.5 mph N/A   Overcast
11:55 AM 53.6 °F 51.8 °F 94% 29.90 in 9.0 mi NNW 16.1 mph 23.0 mph N/A   Overcast
12:15 PM 55.4 °F 51.8 °F 88% 29.90 in 10.0 mi North 15.0 mph 27.6 mph N/A   Overcast
12:35 PM 55.4 °F 51.8 °F 88% 29.90 in 10.0 mi North 15.0 mph 27.6 mph N/A   Overcast
12:55 PM 55.4 °F 50.0 °F 82% 29.91 in 10.0 mi North 17.3 mph 25.3 mph N/A   Overcast
1:15 PM 55.4 °F 50.0 °F 82% 29.92 in 10.0 mi North 17.3 mph 25.3 mph N/A   Overcast
1:35 PM 55.4 °F 50.0 °F 82% 29.92 in 10.0 mi North 16.1 mph 25.3 mph N/A   Overcast
1:55 PM 55.4 °F 50.0 °F 82% 29.93 in 10.0 mi North 15.0 mph 25.3 mph N/A   Overcast
2:15 PM 55.4 °F 50.0 °F 82% 29.93 in 10.0 mi NNW 13.8 mph 25.3 mph N/A   Overcast
2:35 PM 55.4 °F 51.8 °F 88% 29.94 in 10.0 mi North 13.8 mph 21.9 mph N/A   Overcast
2:55 PM 55.4 °F 50.0 °F 82% 29.94 in 10.0 mi NNW 13.8 mph 23.0 mph N/A   Overcast
3:15 PM 55.4 °F 50.0 °F 82% 29.94 in 10.0 mi North 16.1 mph 23.0 mph N/A   Overcast
3:35 PM 55.4 °F 50.0 °F 82% 29.95 in 10.0 mi North 13.8 mph 21.9 mph N/A   Overcast
3:55 PM 55.4 °F 50.0 °F 82% 29.95 in 10.0 mi North 12.7 mph 20.7 mph N/A   Overcast
4:15 PM 55.4 °F 50.0 °F 82% 29.96 in 10.0 mi NNW 13.8 mph 21.9 mph N/A   Overcast
4:35 PM 53.6 °F 50.0 °F 88% 29.97 in 10.0 mi North 15.0 mph 21.9 mph N/A   Overcast
4:55 PM 53.6 °F 50.0 °F 88% 29.98 in 10.0 mi North 11.5 mph 18.4 mph N/A   Overcast
5:15 PM 53.6 °F 50.0 °F 88% 29.98 in 10.0 mi North 11.5 mph 21.9 mph N/A   Overcast
5:35 PM 53.6 °F 50.0 °F 88% 29.99 in 10.0 mi North 11.5 mph 17.3 mph N/A   Overcast
5:55 PM 51.8 °F 50.0 °F 94% 30.00 in 10.0 mi NNW 10.4 mph - N/A   Overcast
6:15 PM 51.8 °F 50.0 °F 94% 30.01 in 10.0 mi North 8.1 mph 19.6 mph N/A   Overcast
6:35 PM 51.8 °F 50.0 °F 94% 30.01 in 10.0 mi North 11.5 mph 18.4 mph N/A   Overcast
6:55 PM 51.8 °F 50.0 °F 94% 30.02 in 10.0 mi North 11.5 mph 20.7 mph N/A   Overcast
7:15 PM 51.8 °F 50.0 °F 94% 30.02 in 10.0 mi North 9.2 mph 17.3 mph N/A   Overcast
7:35 PM 51.8 °F 50.0 °F 94% 30.04 in 10.0 mi North 11.5 mph - N/A   Overcast
7:55 PM 51.8 °F 50.0 °F 94% 30.05 in 10.0 mi North 10.4 mph 18.4 mph N/A   Overcast
8:15 PM 50.0 °F 48.2 °F 94% 30.06 in 10.0 mi North 11.5 mph - N/A   Overcast
8:35 PM 50.0 °F 50.0 °F 100% 30.07 in 8.0 mi North 8.1 mph 15.0 mph N/A   Overcast
8:55 PM 50.0 °F 50.0 °F 100% 30.08 in 5.0 mi North 8.1 mph - N/A   Overcast
9:15 PM 50.0 °F 50.0 °F 100% 30.08 in 10.0 mi North 8.1 mph - N/A   Overcast
9:35 PM 50.0 °F 48.2 °F 94% 30.09 in 10.0 mi NNE 8.1 mph - N/A   Overcast
9:55 PM 50.0 °F 48.2 °F 94% 30.09 in 10.0 mi NNE 8.1 mph - N/A   Overcast
10:15 PM 50.0 °F 48.2 °F 94% 30.10 in 10.0 mi NNE 8.1 mph - N/A   Overcast
10:35 PM 50.0 °F 48.2 °F 94% 30.10 in 10.0 mi North 6.9 mph - N/A   Overcast
10:55 PM 50.0 °F 48.2 °F 94% 30.10 in 10.0 mi NNE 9.2 mph - N/A   Overcast
11:15 PM 50.0 °F 48.2 °F 94% 30.11 in 10.0 mi NNE 8.1 mph - N/A   Overcast
11:35 PM 50.0 °F 48.2 °F 94% 30.10 in 10.0 mi NNE 8.1 mph - N/A   Overcast
11:55 PM 50.0 °F 48.2 °F 94% 30.12 in 10.0 mi North 8.1 mph - N/A   Overcast